Temp
50 51 51 52 52 51 52 53 52 52 52 52 52 53 54 49 52 48 49 51 52 57 55 56 59 60 60 58 59 59 60 59 59 59 59 58 58 55 54 52 53 53 50 50 50 51 52 53 53 55 57 57 57 56 55 54 53 54 56 56 55 53 53 53 54 56 61 65 64 62 61 62 62 60
52 51 51 51 52 50 51 51 51 52 52 52 52 52 51 53 53 47 48 50 51 55 55 55 56 58 58 58 58 58 59 57 58 58 58 57 57 54 53 52 52 52 51 50 50 52 52 52 53 53 54 55 55 55 55 55 54 55 55 53 54 55 55 56 56 58 60 61 60 60 60 61 61 61
54 52 52 51 52 51 51 51 51 51 52 51 52 51 52 51 53 51 48 49 52 52 53 54 55 55 56 57 56 56 57 57 58 57 56 58 54 55 55 52 52 51 51 50 50 52 53 52 51 52 52 53 53 53 54 55 54 53 53 52 52 55 57 57 57 58 59 60 60 60 60 60 60 60
52 52 52 52 52 52 53 52 52 51 51 51 52 52 52 50 49 51 50 50 52 51 53 52 54 55 54 55 55 55 56 57 55 57 56 56 54 56 57 53 50 51 50 50 50 50 51 52 51 50 49 51 52 52 52 52 52 52 51 49 50 51 53 55 56 57 59 59 59 59 58 59 59 59
52 53 53 52 52 51 52 51 52 52 51 51 51 51 52 52 51 53 50 50 51 52 49 51 53 54 54 54 54 54 53 54 55 56 55 55 55 55 55 56 52 49 49 49 49 49 49 50 50 47 47 49 50 50 51 51 49 50 48 45 46 49 51 52 52 53 55 56 57 56 57 57 57 56
52 52 53 52 51 50 52 51 53 52 52 52 52 51 52 52 51 50 51 49 49 50 50 52 52 53 53 53 54 52 52 52 54 55 55 56 56 55 55 56 56 49 50 48 49 49 49 48 48 48 48 48 49 49 50 50 49 48 47 47 47 50 49 49 49 50 52 53 54 54 55 56 56 57
51 52 53 52 51 51 51 51 50 51 51 52 52 50 51 51 50 51 51 49 48 50 51 48 51 51 51 51 52 54 53 53 53 53 53 54 54 55 54 55 56 50 48 48 49 49 49 49 48 48 49 48 48 48 48 49 49 47 47 47 49 49 47 46 46 47 48 50 52 53 54 53 54 56
52 53 52 52 51 52 52 50 50 50 50 50 51 50 49 49 49 49 50 51 49 48 50 49 50 50 50 51 52 53 54 53 53 53 53 53 53 53 54 55 55 53 49 48 49 49 49 49 48 48 48 48 48 48 49 48 48 48 48 47 47 48 47 47 46 45 47 48 50 51 52 52 53 55
53 53 54 53 52 52 52 50 50 50 50 50 50 50 49 49 49 49 49 50 49 48 49 49 47 47 50 51 51 52 51 52 52 52 52 52 52 51 52 53 55 50 49 49 49 48 48 49 49 49 48 48 48 47 48 48 48 48 48 48 48 48 47 47 47 46 45 45 45 47 49 51 52 55
54 54 55 54 52 53 53 52 51 49 50 48 49 49 49 49 48 47 47 47 47 48 48 49 49 47 47 48 49 50 50 49 49 50 51 51 50 50 50 51 53 53 53 52 52 49 50 50 49 49 49 48 48 48 48 48 48 48 48 48 47 47 47 46 46 46 46 46 45 44 45 48 51 54
54 55 55 54 53 54 55 54 53 51 50 50 49 49 48 48 47 47 47 47 47 48 47 45 46 48 47 47 48 50 49 49 48 46 47 49 50 49 48 49 51 52 51 49 48 49 49 49 51 49 48 48 48 48 47 48 48 48 47 47 46 46 46 46 46 46 46 46 46 45 45 45 48 51
54 54 54 54 54 55 56 57 55 54 53 52 51 49 49 48 47 46 46 46 46 46 46 47 47 45 46 46 46 47 47 48 47 47 45 45 46 47 47 48 48 50 49 49 50 50 49 49 49 48 48 48 47 47 48 49 49 49 47 46 45 45 45 45 45 45 45 46 46 46 45 45 45 49
53 54 54 54 54 56 57 54 54 54 53 53 51 49 49 48 47 46 46 45 45 45 46 46 44 45 46 44 45 46 45 45 44 45 44 44 45 45 46 48 50 48 47 48 48 49 49 49 50 51 51 52 50 51 48 50 49 48 46 45 45 45 45 44 44 45 45 45 45 44 44 45 45 45
54 54 55 55 56 55 54 52 49 48 49 51 54 52 51 50 48 47 47 46 46 47 47 47 46 47 46 44 44 44 44 44 44 44 43 43 44 44 45 47 48 48 47 46 45 47 49 48 49 50 50 51 50 51 52 53 50 48 46 45 45 44 44 44 44 45 45 45 44 44 44 44 44 44
55 55 55 54 55 54 53 53 47 45 45 46 47 47 49 49 50 48 47 46 46 48 47 44 44 44 45 44 44 44 44 43 43 42 42 42 43 42 40 41 45 47 46 45 43 45 49 49 47 49 49 50 50 51 51 48 47 46 45 45 45 44 44 44 44 44 44 44 44 44 44 44 44 44
54 54 54 54 54 55 55 55 53 48 45 44 44 44 43 41 41 44 48 47 44 45 46 45 44 44 45 44 42 44 43 43 42 42 42 42 41 41 40 41 40 46 46 43 42 42 47 48 47 46 48 49 50 50 48 46 46 45 45 45 44 44 43 43 43 43 43 43 43 43 43 43 43 42
53 53 53 53 53 54 56 56 52 51 49 43 42 42 42 42 41 38 39 43 48 47 46 46 43 43 44 44 44 43 43 42 42 42 42 42 41 40 40 41 42 44 45 42 41 41 45 46 45 45 47 48 49 49 47 46 45 45 45 45 44 43 42 42 43 42 42 42 42 42 42 42 42 41
51 52 52 52 52 52 54 52 51 51 50 49 49 48 47 47 44 40 39 39 40 44 47 46 45 43 43 46 43 44 43 42 42 42 41 42 40 40 40 41 41 43 44 41 40 39 43 45 44 43 46 48 48 49 47 45 45 45 45 44 43 43 42 42 42 42 42 42 42 42 42 42 41 41
50 50 50 51 51 50 49 50 50 50 49 49 47 46 45 44 44 45 46 46 45 44 43 44 44 43 44 44 44 44 44 43 43 43 41 41 40 40 40 40 41 42 44 42 40 37 42 44 42 43 45 47 47 49 47 45 44 44 44 44 43 43 41 41 41 41 42 42 42 42 41 40 41 41
46 47 49 49 48 48 49 47 44 47 50 49 47 44 43 42 43 43 42 41 43 44 44 44 44 43 42 42 43 43 43 42 42 42 42 41 39 38 38 38 40 40 43 43 41 38 40 43 41 43 46 46 45 48 48 46 45 45 44 44 43 42 41 41 41 41 42 42 42 42 41 41 40 40
46 47 47 47 46 45 44 41 40 42 45 48 46 45 43 43 42 41 42 40 39 39 39 39 39 38 38 39 38 38 38 41 41 40 38 39 39 37 36 37 38 39 41 42 42 40 38 42 42 42 44 45 44 46 48 49 46 44 43 43 44 44 43 43 43 43 43 43 43 43 42 41 40 41
43 47 48 45 44 44 43 39 40 41 46 47 45 45 44 43 42 41 40 40 40 39 39 39 38 38 38 38 38 39 39 38 40 40 38 40 39 37 37 35 37 38 39 41 43 39 39 42 42 40 43 44 45 46 48 48 47 44 44 43 44 44 43 43 43 43 43 43 43 43 42 41 41 44
42 44 44 44 44 44 41 38 39 40 45 45 44 43 44 43 42 41 40 40 40 39 40 38 39 39 39 39 39 40 38 38 40 41 40 40 38 37 37 37 36 35 38 41 43 39 40 40 41 41 39 37 43 46 47 47 48 49 50 50 49 44 43 43 43 43 43 43 43 43 42 41 41 45
43 44 44 42 38 38 39 38 38 39 40 44 43 44 43 42 41 39 39 40 38 37 37 37 37 38 37 37 38 38 38 39 40 40 40 39 39 38 37 37 36 34 37 42 44 39 40 41 39 43 40 35 34 42 45 46 47 48 48 48 47 45 44 44 44 43 42 43 43 43 42 41 41 45
43 43 43 43 39 38 38 38 38 38 38 40 42 41 41 40 40 38 40 39 39 38 38 38 37 38 38 37 37 37 38 39 40 40 40 40 40 39 38 37 36 37 39 42 42 41 38 40 39 41 40 40 40 39 42 44 46 46 47 47 46 48 48 47 46 49 45 43 43 42 41 41 41 43
43 43 43 42 39 37 38 37 37 37 38 39 42 39 36 35 35 39 39 38 38 37 37 37 37 37 37 37 37 38 39 39 40 40 40 40 40 40 40 39 37 36 38 43 39 41 39 38 40 38 39 38 39 40 38 40 44 45 46 46 45 45 45 44 45 46 48 49 49 46 45 41 41 40
42 42 42 41 38 37 37 37 37 37 37 38 38 36 35 35 36 37 38 37 36 36 36 36 36 36 36 36 37 37 38 39 39 39 40 40 40 40 41 41 40 40 41 42 43 42 40 39 41 38 37 39 36 38 38 37 40 44 43 45 46 47 46 45 45 46 47 47 48 42 40 40 39 39
40 40 41 40 37 37 37 37 37 36 37 38 36 36 36 35 36 38 37 36 36 36 36 36 36 36 36 36 36 37 38 39 39 39 39 39 40 40 40 40 41 41 41 41 42 42 41 39 40 41 40 38 36 34 34 40 41 42 41 44 45 46 46 45 45 45 45 46 44 45 44 46 46 44
40 38 37 36 37 37 36 36 37 37 36 35 35 35 35 37 37 37 37 36 36 35 35 35 35 35 36 37 37 38 37 37 37 37 38 39 39 39 39 39 40 40 40 41 42 42 41 40 39 40 40 39 37 37 37 36 39 40 41 41 41 44 46 47 46 45 45 45 44 42 43 45 45 45
36 36 37 37 37 37 37 38 38 37 37 35 35 35 36 36 36 36 36 35 35 34 34 34 34 35 36 36 36 36 36 36 36 36 36 36 36 37 37 36 37 39 40 41 41 42 41 41 40 40 39 39 39 37 38 37 37 40 40 40 42 43 45 46 46 46 43 43 43 42 43 42 42 43
38 37 38 37 36 36 35 35 34 35 35 36 35 35 35 35 35 36 35 35 34 34 34 34 34 34 35 35 35 35 35 35 36 37 36 35 35 35 35 34 34 35 38 41 41 41 41 41 41 40 37 37 38 38 39 39 37 38 40 40 40 36 42 45 45 45 45 46 46 44 42 40 40 39
38 37 36 35 36 36 36 35 35 34 34 33 33 34 34 35 34 35 34 35 35 34 34 33 33 33 34 34 35 35 35 35 35 37 36 35 34 35 35 32 32 34 36 38 40 40 38 41 40 40 39 38 36 38 39 39 37 38 38 40 40 41 42 42 43 45 46 45 43 42 42 41 41 42
35 36 35 34 34 33 31 31 32 33 33 32 33 33 34 34 34 34 34 33 33 34 33 32 32 32 33 33 34 34 34 34 35 37 36 36 35 35 35 32 33 33 33 35 37 39 40 39 40 40 40 40 40 39 36 34 36 39 38 39 39 38 40 41 42 43 44 41 40 40 40 42 41 41
32 30 30 29 30 30 31 30 29 29 29 29 31 31 31 32 33 33 33 33 34 34 33 34 33 33 33 33 34 34 33 34 35 36 35 35 35 33 32 32 32 34 34 34 36 37 39 40 40 40 40 40 41 41 39 36 35 37 38 38 37 37 39 41 41 41 41 40 38 37 38 39 40 40
31 31 31 28 28 27 29 28 29 28 29 29 30 31 31 31 31 31 32 33 34 34 34 34 34 33 33 33 33 33 33 33 34 35 36 35 34 33 33 31 32 33 34 34 35 37 38 37 37 35 36 36 36 39 42 40 36 36 38 38 39 38 38 39 39 40 40 39 39 36 36 38 38 38
29 30 30 29 28 26 28 28 27 28 29 29 30 30 31 32 32 32 33 35 35 34 34 34 34 34 34 33 33 33 33 33 33 34 34 34 33 33 34 33 33 34 35 35 35 37 36 35 34 32 30 31 31 31 34 41 40 39 36 36 37 37 37 39 39 39 38 38 38 37 35 36 37 37
28 28 29 30 29 28 28 29 29 30 31 31 31 31 31 31 33 33 34 33 34 34 34 34 34 34 34 34 34 33 34 33 33 33 33 34 34 33 32 33 33 34 34 35 36 36 35 34 34 32 30 30 29 28 32 37 38 41 40 36 37 37 37 37 37 36 37 37 37 37 36 36 36 35
30 29 31 32 33 33 30 30 29 29 31 31 31 31 32 33 34 34 35 35 34 34 34 34 34 34 34 34 33 33 33 33 33 33 33 33 33 32 32 32 32 33 34 35 35 35 35 34 33 33 31 29 28 29 30 35 36 37 39 38 36 37 37 36 36 35 36 37 36 36 37 36 34 34
32 31 31 32 32 33 31 30 30 30 32 32 32 32 32 33 33 33 33 33 33 33 34 34 34 34 34 34 34 33 32 32 32 32 32 32 32 32 32 32 32 33 33 33 34 34 34 33 33 33 32 31 30 31 33 32 33 36 37 38 37 36 36 36 34 34 34 34 33 33 33 34 35 34
32 33 33 33 34 33 33 31 31 32 32 32 32 32 32 32 32 32 33 33 33 34 34 34 34 34 35 34 33 33 33 32 32 32 32 32 33 33 32 33 32 32 32 32 32 33 33 33 34 33 33 34 35 36 36 35 35 36 36 37 38 37 36 37 35 34 34 34 33 33 32 33 33 33
32 33 32 32 32 32 33 33 33 31 32 32 32 32 32 32 32 32 32 33 34 34 34 34 34 34 34 33 33 33 31 32 32 33 33 33 32 32 32 32 32 32 31 31 32 32 33 35 35 35 35 36 36 35 34 31 31 34 35 37 38 37 37 37 37 35 34 34 34 34 33 33 33 33
32 32 32 32 31 33 33 32 32 31 31 31 32 31 31 31 31 32 32 32 33 33 33 34 34 34 33 34 33 33 32 32 32 32 32 32 32 32 33 33 32 33 32 31 32 33 36 37 35 35 34 34 33 31 30 31 31 33 35 36 37 36 36 36 37 37 37 35 35 34 33 33 34 32
30 31 32 31 30 32 31 31 31 30 31 31 31 31 31 31 31 31 31 32 33 33 33 33 33 33 33 33 33 33 32 32 32 32 32 33 32 32 32 33 33 33 33 33 34 35 36 36 35 34 33 33 33 33 31 32 33 34 35 35 35 35 35 36 37 36 36 37 36 36 36 36 34 31
29 30 31 30 30 29 30 30 30 30 29 30 30 30 30 30 29 30 30 31 32 32 33 32 33 33 33 33 33 33 33 33 33 33 33 33 33 33 32 33 33 33 33 33 34 35 36 36 36 35 33 32 33 32 31 32 33 34 35 34 33 33 33 34 35 35 35 35 34 35 35 35 36 36
29 29 28 26 26 27 28 28 29 29 28 29 30 30 29 29 28 29 30 30 31 32 32 32 32 32 32 32 32 32 33 34 34 34 33 33 33 33 33 33 33 33 33 33 33 33 35 35 36 35 33 33 34 33 34 34 34 34 34 33 32 33 33 34 33 33 33 33 33 34 34 34 34 34
MSLP
1021.78 1021.82 1021.82 1021.90 1021.98 1022.02 1021.98 1021.90 1021.94 1022.02 1022.10 1022.14 1022.06 1021.90 1021.66 1021.74 1022.06 1022.50 1023.18 1023.58 1023.46 1023.38 1023.50 1023.34 1023.26 1023.30 1023.22 1023.18 1023.02 1022.86 1022.78 1022.78 1022.54 1022.46 1022.42 1022.42 1022.42 1022.34 1022.14 1022.10 1021.98 1021.94 1021.86 1021.82 1021.82 1021.86 1021.86 1021.86 1021.82 1021.74 1021.70 1021.62 1021.54 1021.42 1021.30 1021.26 1021.14 1020.98 1020.94 1020.90 1020.86 1020.82 1020.78 1020.70 1020.62 1020.62 1020.62 1020.58 1020.58 1020.62 1020.86 1021.02 1021.06 1021.30
1021.58 1021.66 1021.78 1021.82 1021.82 1022.02 1021.86 1021.94 1022.02 1021.94 1021.98 1022.02 1022.10 1022.14 1022.22 1021.90 1021.70 1022.22 1022.98 1023.62 1023.90 1023.58 1023.74 1023.74 1023.70 1023.50 1023.54 1023.42 1023.34 1023.26 1023.18 1023.10 1022.90 1022.82 1022.78 1022.74 1022.78 1022.54 1022.42 1022.38 1022.34 1022.26 1022.18 1022.14 1022.10 1022.06 1022.06 1022.02 1022.02 1021.94 1021.86 1021.70 1021.58 1021.42 1021.30 1021.14 1021.10 1021.02 1020.90 1020.82 1020.78 1020.70 1020.66 1020.66 1020.62 1020.54 1020.50 1020.50 1020.50 1020.58 1020.70 1020.78 1020.86 1020.90
1021.42 1021.46 1021.58 1021.74 1021.78 1021.90 1021.90 1022.10 1022.14 1022.18 1022.06 1022.18 1022.34 1022.42 1022.30 1022.26 1022.14 1022.14 1022.54 1023.14 1024.02 1024.18 1023.86 1023.98 1023.98 1023.98 1023.86 1023.70 1023.58 1023.50 1023.46 1023.42 1023.26 1023.14 1023.10 1023.02 1022.98 1022.74 1022.70 1022.74 1022.66 1022.66 1022.58 1022.54 1022.46 1022.42 1022.38 1022.34 1022.30 1022.18 1022.06 1021.86 1021.70 1021.54 1021.38 1021.22 1021.10 1020.98 1020.90 1020.90 1020.82 1020.70 1020.58 1020.54 1020.54 1020.46 1020.42 1020.42 1020.42 1020.46 1020.50 1020.50 1020.58 1020.66
1021.66 1021.58 1021.62 1021.70 1021.74 1021.86 1021.90 1022.06 1022.22 1022.26 1022.46 1022.50 1022.46 1022.50 1022.42 1022.58 1022.54 1022.46 1022.70 1023.10 1023.74 1024.30 1024.18 1024.22 1024.10 1024.10 1024.06 1023.94 1023.74 1023.74 1023.70 1023.66 1023.54 1023.46 1023.38 1023.38 1023.14 1023.02 1023.02 1022.98 1022.98 1022.94 1022.86 1022.82 1022.74 1022.70 1022.62 1022.54 1022.46 1022.38 1022.26 1022.10 1021.94 1021.78 1021.58 1021.46 1021.30 1021.14 1021.02 1020.94 1020.90 1020.78 1020.66 1020.58 1020.54 1020.46 1020.38 1020.30 1020.30 1020.30 1020.30 1020.34 1020.34 1020.42
1021.90 1021.74 1021.74 1021.78 1021.86 1021.94 1021.82 1022.06 1022.30 1022.50 1022.70 1022.74 1022.74 1022.78 1022.54 1022.62 1022.78 1022.62 1022.86 1023.22 1023.90 1024.22 1024.74 1024.46 1024.38 1024.26 1024.14 1024.10 1024.14 1024.02 1023.90 1023.82 1023.74 1023.66 1023.66 1023.58 1023.50 1023.46 1023.38 1023.26 1023.18 1023.18 1023.10 1023.02 1022.90 1022.82 1022.74 1022.66 1022.62 1022.54 1022.42 1022.34 1022.18 1022.06 1021.90 1021.74 1021.54 1021.34 1021.22 1021.18 1021.10 1021.02 1020.82 1020.70 1020.62 1020.58 1020.46 1020.38 1020.30 1020.30 1020.26 1020.22 1020.22 1020.22
1022.26 1022.10 1021.94 1021.98 1022.02 1022.10 1021.90 1022.06 1022.14 1022.46 1022.66 1022.70 1022.74 1022.86 1022.70 1022.78 1022.86 1023.02 1022.94 1023.54 1023.70 1023.90 1024.34 1024.34 1024.58 1024.42 1024.38 1024.34 1024.42 1024.30 1024.18 1024.10 1024.02 1023.86 1023.82 1023.78 1023.74 1023.74 1023.62 1023.46 1023.34 1023.38 1023.26 1023.18 1023.10 1023.02 1022.94 1022.90 1022.78 1022.70 1022.58 1022.46 1022.34 1022.22 1022.06 1021.90 1021.74 1021.58 1021.38 1021.22 1021.14 1021.10 1021.02 1020.94 1020.82 1020.70 1020.58 1020.50 1020.42 1020.38 1020.26 1020.18 1020.10 1020.02
1022.38 1022.26 1022.18 1022.14 1022.18 1022.22 1022.02 1022.10 1022.30 1022.50 1022.46 1022.74 1022.50 1023.02 1023.18 1023.02 1023.14 1023.06 1022.82 1023.06 1023.54 1023.50 1023.98 1024.66 1024.58 1024.54 1024.46 1024.50 1024.58 1024.46 1024.38 1024.30 1024.30 1024.22 1024.14 1024.10 1024.06 1023.98 1023.86 1023.74 1023.54 1023.46 1023.42 1023.34 1023.22 1023.14 1023.06 1023.02 1022.90 1022.78 1022.66 1022.50 1022.34 1022.18 1022.02 1021.86 1021.74 1021.62 1021.50 1021.34 1021.18 1021.02 1020.94 1020.94 1020.94 1020.82 1020.74 1020.62 1020.50 1020.38 1020.30 1020.22 1020.10 1019.98
1022.26 1022.22 1022.26 1022.30 1022.38 1022.26 1022.10 1022.18 1022.30 1022.58 1022.62 1022.46 1022.66 1022.82 1023.18 1023.02 1023.06 1023.10 1022.98 1022.86 1023.10 1023.78 1023.38 1024.34 1024.46 1024.54 1024.50 1024.50 1024.58 1024.58 1024.46 1024.38 1024.34 1024.38 1024.30 1024.26 1024.26 1024.18 1024.06 1023.90 1023.70 1023.58 1023.50 1023.38 1023.30 1023.22 1023.14 1023.06 1022.94 1022.86 1022.74 1022.58 1022.38 1022.22 1022.02 1021.82 1021.66 1021.50 1021.38 1021.30 1021.18 1021.06 1020.94 1020.78 1020.74 1020.78 1020.74 1020.70 1020.58 1020.46 1020.34 1020.22 1020.10 1019.94
1022.14 1022.14 1022.06 1022.10 1022.34 1022.38 1022.18 1022.38 1022.30 1022.50 1022.30 1022.62 1022.58 1022.66 1023.14 1023.06 1023.26 1023.34 1023.10 1023.06 1023.14 1023.22 1023.30 1023.90 1024.50 1024.54 1024.42 1024.46 1024.54 1024.58 1024.54 1024.42 1024.42 1024.38 1024.34 1024.22 1024.26 1024.26 1024.18 1023.98 1023.78 1023.62 1023.58 1023.50 1023.38 1023.30 1023.18 1023.06 1022.98 1022.86 1022.74 1022.62 1022.46 1022.34 1022.14 1021.90 1021.70 1021.54 1021.34 1021.22 1021.14 1021.06 1020.94 1020.82 1020.66 1020.58 1020.58 1020.62 1020.58 1020.50 1020.34 1020.22 1020.06 1019.86
1022.06 1021.94 1021.90 1021.98 1022.14 1022.22 1022.06 1022.14 1022.30 1022.42 1022.30 1022.62 1022.50 1022.58 1022.94 1023.18 1023.46 1023.34 1023.42 1023.30 1023.26 1023.34 1023.74 1023.78 1023.94 1024.50 1024.38 1024.34 1024.42 1024.46 1024.54 1024.50 1024.46 1024.34 1024.30 1024.22 1024.22 1024.18 1024.06 1023.94 1023.82 1023.66 1023.58 1023.50 1023.42 1023.30 1023.18 1023.06 1022.94 1022.82 1022.66 1022.54 1022.42 1022.30 1022.18 1021.98 1021.78 1021.58 1021.38 1021.26 1021.14 1021.02 1020.94 1020.82 1020.70 1020.54 1020.42 1020.30 1020.30 1020.30 1020.22 1020.06 1019.86 1019.66
1021.90 1021.86 1021.90 1021.94 1021.98 1021.90 1021.90 1021.90 1021.94 1022.10 1022.18 1022.26 1022.26 1022.46 1022.62 1023.18 1023.02 1023.14 1023.22 1023.02 1023.10 1023.22 1023.46 1024.10 1024.30 1024.22 1024.62 1024.54 1024.18 1024.38 1024.42 1024.42 1024.58 1024.58 1024.06 1023.82 1023.98 1024.14 1024.14 1023.82 1023.66 1023.66 1023.62 1023.58 1023.58 1023.50 1023.42 1023.26 1023.02 1022.82 1022.62 1022.46 1022.30 1022.14 1022.02 1021.86 1021.70 1021.54 1021.38 1021.26 1021.14 1021.02 1020.82 1020.70 1020.58 1020.50 1020.38 1020.26 1020.14 1020.02 1019.94 1019.86 1019.70 1019.46
1021.70 1021.70 1021.74 1021.78 1021.74 1021.66 1021.66 1021.62 1021.82 1021.94 1021.94 1022.42 1022.30 1022.98 1023.06 1023.14 1022.90 1023.34 1023.58 1023.26 1023.30 1023.30 1023.30 1023.46 1023.78 1024.38 1024.42 1024.50 1024.74 1024.74 1024.58 1024.42 1024.46 1024.74 1024.82 1024.38 1023.98 1023.82 1023.94 1024.06 1023.78 1023.62 1023.66 1023.54 1023.38 1023.34 1023.26 1023.06 1022.90 1022.78 1022.62 1022.42 1022.22 1022.06 1021.86 1021.66 1021.54 1021.42 1021.34 1021.26 1021.14 1020.94 1020.78 1020.62 1020.46 1020.34 1020.22 1020.14 1020.02 1019.90 1019.74 1019.62 1019.46 1019.30
1021.66 1021.62 1021.58 1021.54 1021.50 1021.46 1021.38 1021.38 1021.38 1021.42 1021.62 1021.86 1022.02 1022.54 1022.82 1022.86 1022.98 1023.18 1023.18 1023.22 1023.34 1023.46 1023.34 1023.54 1024.34 1024.10 1024.06 1024.38 1024.46 1024.30 1024.42 1024.66 1024.90 1025.10 1025.06 1024.82 1024.78 1024.62 1024.10 1023.66 1023.66 1023.74 1023.62 1023.46 1023.34 1023.18 1023.14 1022.90 1022.62 1022.50 1022.38 1022.22 1022.06 1021.90 1021.78 1021.54 1021.34 1021.26 1021.18 1021.14 1020.98 1020.82 1020.74 1020.58 1020.42 1020.26 1020.10 1019.94 1019.78 1019.62 1019.50 1019.34 1019.22 1019.10
1021.38 1021.30 1021.30 1021.26 1021.18 1021.22 1021.18 1021.22 1021.30 1021.42 1021.46 1021.46 1021.54 1021.86 1022.42 1022.50 1022.66 1022.74 1022.82 1022.94 1023.02 1023.02 1022.98 1023.22 1023.58 1023.54 1023.74 1024.38 1024.66 1024.66 1024.86 1025.10 1025.22 1025.14 1025.10 1024.78 1024.74 1024.54 1024.18 1023.62 1023.62 1023.66 1023.70 1023.54 1023.10 1022.86 1022.94 1022.90 1022.46 1022.34 1022.22 1022.02 1021.98 1021.78 1021.54 1021.34 1021.26 1021.14 1021.02 1020.94 1020.78 1020.70 1020.62 1020.42 1020.26 1020.10 1019.98 1019.82 1019.62 1019.42 1019.26 1019.06 1018.94 1018.78
1020.98 1021.02 1021.10 1021.06 1021.02 1021.06 1021.02 1021.06 1021.38 1021.70 1021.66 1021.50 1021.54 1021.78 1022.02 1022.18 1022.22 1022.50 1022.78 1022.82 1022.94 1022.90 1023.10 1023.62 1023.78 1023.90 1023.90 1024.30 1024.82 1024.78 1024.94 1025.10 1025.18 1025.14 1025.18 1025.06 1024.86 1024.82 1024.78 1024.06 1023.42 1023.66 1023.74 1023.62 1023.58 1022.74 1022.58 1022.70 1022.46 1022.22 1022.14 1021.98 1021.82 1021.66 1021.42 1021.26 1021.10 1021.02 1020.94 1020.74 1020.62 1020.54 1020.46 1020.30 1020.14 1019.98 1019.86 1019.66 1019.50 1019.34 1019.14 1018.94 1018.74 1018.50
1020.90 1020.82 1020.82 1020.86 1020.90 1020.86 1020.86 1021.02 1021.22 1021.46 1021.66 1021.66 1021.70 1021.94 1022.26 1022.50 1022.62 1022.66 1022.54 1022.70 1023.22 1023.38 1023.26 1023.46 1023.74 1024.02 1024.06 1024.22 1024.66 1024.70 1024.86 1024.94 1025.06 1025.18 1025.18 1025.10 1025.02 1024.86 1024.74 1024.70 1024.38 1023.58 1023.86 1023.98 1023.62 1022.86 1022.46 1022.54 1022.50 1022.18 1022.02 1021.94 1021.78 1021.58 1021.34 1021.14 1020.94 1020.86 1020.78 1020.62 1020.50 1020.42 1020.30 1020.14 1019.98 1019.82 1019.66 1019.54 1019.34 1019.18 1018.98 1018.78 1018.54 1018.34
1020.94 1020.94 1020.90 1020.86 1020.82 1020.82 1020.78 1020.86 1021.06 1021.42 1021.74 1022.02 1022.22 1022.30 1022.42 1022.58 1022.66 1022.82 1022.90 1022.90 1022.86 1023.10 1023.26 1023.38 1023.74 1023.90 1024.10 1024.18 1024.38 1024.78 1024.82 1025.10 1024.94 1024.98 1024.90 1024.90 1024.98 1024.98 1024.94 1024.62 1024.30 1023.78 1023.98 1024.14 1023.86 1023.18 1022.38 1022.50 1022.42 1022.26 1021.82 1021.78 1021.66 1021.42 1021.22 1021.06 1020.82 1020.62 1020.62 1020.50 1020.42 1020.34 1020.18 1020.02 1019.86 1019.66 1019.50 1019.34 1019.18 1019.02 1018.86 1018.62 1018.42 1018.18
1020.94 1020.90 1020.86 1020.78 1020.66 1020.74 1020.74 1020.90 1021.10 1021.34 1021.58 1021.86 1022.10 1022.38 1022.62 1022.82 1023.02 1023.10 1023.10 1023.18 1023.26 1023.26 1023.22 1023.34 1023.38 1023.98 1024.30 1024.18 1024.50 1024.74 1024.82 1024.90 1024.90 1024.98 1024.90 1024.90 1024.90 1024.82 1024.66 1024.58 1024.58 1024.18 1024.10 1024.18 1023.94 1023.42 1022.46 1022.38 1022.42 1022.22 1021.78 1021.58 1021.46 1021.30 1021.06 1020.90 1020.70 1020.50 1020.42 1020.34 1020.26 1020.22 1020.10 1019.90 1019.70 1019.54 1019.34 1019.18 1019.02 1018.86 1018.66 1018.46 1018.26 1018.02
1020.82 1020.78 1020.74 1020.70 1020.62 1020.74 1020.82 1021.02 1021.14 1021.38 1021.66 1021.82 1022.26 1022.58 1022.90 1023.14 1023.30 1023.26 1023.34 1023.46 1023.50 1023.54 1023.62 1023.62 1023.78 1024.10 1024.38 1024.46 1024.58 1024.70 1024.82 1024.90 1024.94 1025.02 1025.06 1025.02 1024.94 1024.90 1024.82 1024.66 1024.42 1024.14 1023.90 1023.90 1024.02 1023.46 1022.54 1022.50 1022.38 1021.98 1021.70 1021.42 1021.22 1021.02 1020.78 1020.62 1020.38 1020.26 1020.22 1020.14 1020.06 1019.98 1019.86 1019.70 1019.50 1019.38 1019.22 1019.02 1018.86 1018.66 1018.46 1018.30 1018.10 1017.86
1021.02 1020.90 1020.78 1020.74 1020.86 1021.02 1021.10 1021.26 1021.38 1021.50 1021.66 1021.82 1022.10 1022.50 1022.98 1023.30 1023.54 1023.74 1023.98 1023.86 1023.74 1023.78 1023.90 1023.98 1024.14 1024.30 1024.50 1024.58 1024.62 1024.70 1024.82 1024.94 1025.02 1025.06 1025.10 1025.06 1025.02 1024.98 1024.78 1024.46 1024.18 1024.18 1023.78 1023.82 1023.78 1023.38 1022.78 1022.66 1022.58 1021.94 1021.54 1021.34 1021.06 1020.74 1020.58 1020.26 1020.02 1019.94 1019.94 1019.90 1019.82 1019.78 1019.66 1019.50 1019.34 1019.18 1018.98 1018.82 1018.66 1018.50 1018.34 1018.14 1017.94 1017.70
1021.30 1021.18 1021.18 1021.18 1021.34 1021.46 1021.54 1021.66 1021.58 1021.70 1021.62 1021.90 1022.22 1022.54 1022.90 1023.42 1023.62 1023.98 1024.18 1024.10 1024.10 1024.18 1024.26 1024.34 1024.50 1024.62 1024.66 1024.70 1024.74 1024.78 1024.82 1024.90 1024.98 1025.14 1025.18 1024.82 1024.74 1024.78 1024.46 1024.10 1024.10 1023.82 1023.78 1023.58 1023.42 1023.26 1022.94 1022.50 1022.46 1021.94 1021.50 1021.26 1020.94 1020.58 1020.30 1019.98 1019.78 1019.82 1019.78 1019.70 1019.62 1019.50 1019.38 1019.22 1019.14 1018.98 1018.86 1018.66 1018.50 1018.30 1018.18 1018.02 1017.82 1017.58
1021.78 1021.66 1021.54 1021.58 1021.66 1021.70 1021.94 1021.94 1021.82 1021.82 1021.74 1021.98 1022.30 1022.58 1022.94 1023.26 1023.54 1023.90 1024.14 1024.26 1024.42 1024.42 1024.46 1024.54 1024.62 1024.62 1024.70 1024.74 1024.74 1024.78 1024.78 1024.82 1024.90 1024.90 1024.74 1024.42 1024.62 1024.58 1024.50 1024.18 1023.82 1023.66 1023.70 1023.30 1023.10 1023.18 1022.58 1022.34 1022.30 1021.98 1021.22 1020.98 1020.62 1020.42 1020.02 1019.82 1019.74 1019.74 1019.66 1019.54 1019.42 1019.26 1019.14 1018.98 1018.86 1018.78 1018.62 1018.46 1018.34 1018.18 1018.02 1017.90 1017.70 1017.42
1022.26 1022.22 1022.14 1022.06 1022.02 1022.06 1022.18 1022.10 1022.10 1022.10 1022.10 1022.34 1022.58 1022.70 1022.74 1022.94 1023.14 1023.74 1024.06 1024.10 1024.22 1024.30 1024.34 1024.46 1024.54 1024.54 1024.66 1024.70 1024.70 1024.66 1024.70 1024.70 1024.70 1024.62 1024.54 1024.50 1024.58 1024.38 1024.18 1024.14 1023.98 1023.62 1023.18 1023.06 1023.02 1022.94 1022.26 1022.42 1021.98 1022.02 1021.34 1020.90 1020.26 1020.14 1019.90 1019.82 1019.70 1019.58 1019.42 1019.30 1019.18 1019.10 1018.98 1018.82 1018.70 1018.58 1018.38 1018.22 1018.10 1017.98 1017.86 1017.78 1017.66 1017.38
1022.50 1022.54 1022.58 1022.62 1022.54 1022.46 1022.50 1022.58 1022.66 1022.70 1022.66 1022.66 1022.90 1022.90 1022.94 1023.06 1023.38 1024.06 1024.22 1024.34 1024.38 1024.42 1024.50 1024.54 1024.70 1024.58 1024.62 1024.58 1024.58 1024.54 1024.46 1024.38 1024.38 1024.38 1024.38 1024.38 1024.34 1024.26 1024.10 1023.98 1024.02 1023.82 1023.26 1022.90 1022.90 1022.90 1022.26 1022.34 1021.98 1021.78 1021.90 1021.82 1020.74 1019.94 1019.94 1019.74 1019.66 1019.50 1019.42 1019.22 1019.06 1018.86 1018.70 1018.54 1018.42 1018.26 1018.14 1018.02 1017.86 1017.74 1017.66 1017.58 1017.54 1017.26
1022.62 1022.86 1022.98 1023.02 1023.06 1022.94 1022.94 1022.98 1023.06 1023.14 1023.22 1023.30 1023.42 1023.54 1023.66 1023.86 1024.06 1024.26 1024.18 1024.34 1024.46 1024.42 1024.50 1024.50 1024.42 1024.34 1024.34 1024.34 1024.42 1024.38 1024.34 1024.26 1024.18 1024.14 1024.10 1024.10 1024.10 1024.06 1023.94 1023.78 1023.58 1023.30 1022.90 1022.86 1022.82 1022.82 1022.42 1022.02 1021.86 1021.62 1021.38 1021.18 1020.54 1020.18 1019.66 1019.66 1019.42 1019.38 1019.18 1019.06 1018.78 1018.58 1018.46 1018.30 1018.14 1017.94 1017.82 1017.74 1017.58 1017.54 1017.46 1017.38 1017.30 1017.18
1022.74 1022.82 1022.98 1023.10 1023.26 1023.22 1023.26 1023.26 1023.34 1023.46 1023.54 1023.62 1023.70 1023.98 1024.14 1024.22 1024.22 1024.18 1024.34 1024.46 1024.54 1024.58 1024.54 1024.54 1024.42 1024.38 1024.38 1024.42 1024.38 1024.34 1024.30 1024.18 1024.06 1024.02 1023.90 1023.82 1023.74 1023.70 1023.62 1023.54 1023.26 1022.90 1022.42 1022.46 1022.66 1022.54 1022.34 1021.82 1021.78 1021.54 1021.14 1020.98 1020.02 1020.06 1019.62 1019.34 1019.18 1018.94 1018.86 1018.70 1018.66 1018.50 1018.42 1018.26 1018.06 1017.82 1017.58 1017.34 1017.22 1017.18 1017.18 1017.10 1017.02 1016.98
1022.98 1023.10 1023.22 1023.34 1023.42 1023.42 1023.50 1023.58 1023.66 1023.70 1023.78 1023.90 1024.14 1024.18 1024.22 1024.26 1024.34 1024.46 1024.54 1024.66 1024.62 1024.58 1024.54 1024.54 1024.46 1024.46 1024.46 1024.42 1024.34 1024.26 1024.14 1023.98 1023.90 1023.78 1023.62 1023.50 1023.38 1023.26 1023.14 1023.02 1022.90 1022.66 1022.30 1022.30 1022.34 1022.22 1022.10 1021.66 1021.54 1021.54 1021.06 1020.82 1020.38 1019.74 1019.74 1019.38 1018.86 1018.70 1018.62 1018.50 1018.30 1018.18 1018.10 1018.02 1017.90 1017.62 1017.38 1017.18 1017.02 1017.02 1017.02 1016.90 1016.82 1016.70
1023.14 1023.26 1023.38 1023.50 1023.54 1023.54 1023.66 1023.82 1023.90 1023.98 1024.06 1024.18 1024.18 1024.22 1024.30 1024.42 1024.54 1024.58 1024.58 1024.58 1024.62 1024.54 1024.46 1024.38 1024.46 1024.42 1024.38 1024.38 1024.26 1024.10 1023.90 1023.82 1023.70 1023.58 1023.42 1023.26 1023.10 1022.98 1022.78 1022.62 1022.46 1022.30 1022.18 1022.02 1021.90 1021.82 1021.74 1021.46 1021.18 1021.10 1021.02 1020.74 1020.46 1020.02 1019.46 1019.02 1018.90 1018.62 1018.42 1018.10 1018.06 1017.90 1017.74 1017.58 1017.42 1017.30 1017.10 1016.94 1016.94 1016.86 1016.82 1016.58 1016.46 1016.50
1023.26 1023.42 1023.58 1023.66 1023.66 1023.78 1023.90 1024.02 1024.10 1024.22 1024.34 1024.38 1024.46 1024.54 1024.58 1024.58 1024.62 1024.66 1024.66 1024.66 1024.62 1024.54 1024.54 1024.54 1024.46 1024.42 1024.26 1024.18 1024.06 1023.98 1023.90 1023.78 1023.62 1023.38 1023.10 1022.98 1022.86 1022.70 1022.50 1022.30 1022.14 1021.98 1021.78 1021.54 1021.46 1021.38 1021.30 1021.14 1020.90 1020.78 1020.70 1020.46 1020.22 1019.66 1019.62 1018.90 1018.82 1018.38 1018.22 1018.02 1017.70 1017.30 1017.14 1017.06 1016.98 1016.86 1016.70 1016.70 1016.70 1016.66 1016.58 1016.42 1016.30 1016.26
1023.46 1023.58 1023.66 1023.78 1023.90 1023.98 1024.10 1024.18 1024.34 1024.50 1024.62 1024.62 1024.66 1024.70 1024.70 1024.74 1024.78 1024.78 1024.78 1024.74 1024.74 1024.70 1024.62 1024.58 1024.46 1024.26 1024.18 1024.06 1023.98 1023.94 1023.82 1023.66 1023.38 1023.14 1022.94 1022.82 1022.62 1022.46 1022.22 1021.98 1021.70 1021.54 1021.34 1021.22 1021.14 1021.02 1020.90 1020.78 1020.62 1020.50 1020.34 1020.10 1019.94 1019.54 1019.22 1018.90 1018.30 1018.10 1017.90 1017.70 1017.26 1017.10 1016.98 1016.82 1016.62 1016.46 1016.54 1016.42 1016.26 1016.22 1016.14 1016.22 1016.18 1016.18
1023.74 1023.94 1024.06 1024.18 1024.26 1024.34 1024.42 1024.54 1024.66 1024.70 1024.74 1024.66 1024.78 1024.82 1024.86 1024.90 1024.90 1024.90 1024.94 1024.94 1024.94 1024.86 1024.74 1024.62 1024.46 1024.30 1024.18 1024.06 1023.94 1023.66 1023.50 1023.34 1023.10 1022.94 1022.82 1022.70 1022.46 1022.34 1022.06 1021.90 1021.54 1021.22 1020.82 1020.66 1020.58 1020.54 1020.42 1020.34 1020.22 1020.18 1020.06 1019.74 1019.46 1019.18 1018.78 1018.62 1018.18 1017.94 1017.62 1017.46 1017.42 1017.46 1016.66 1016.58 1016.42 1016.30 1016.18 1016.06 1015.98 1016.06 1015.98 1016.02 1016.02 1016.02
1024.02 1024.14 1024.26 1024.30 1024.38 1024.38 1024.46 1024.62 1024.70 1024.86 1024.94 1025.02 1024.98 1024.98 1025.02 1025.02 1025.06 1025.02 1025.02 1024.98 1024.98 1024.94 1024.86 1024.74 1024.54 1024.34 1024.06 1023.82 1023.58 1023.42 1023.26 1023.06 1022.86 1022.66 1022.54 1022.42 1022.22 1022.06 1021.90 1021.74 1021.38 1020.94 1020.50 1020.18 1020.02 1019.98 1020.02 1019.90 1019.78 1019.66 1019.58 1019.42 1019.22 1018.82 1018.62 1018.34 1018.06 1017.78 1017.46 1017.22 1017.10 1016.82 1016.66 1016.50 1016.26 1016.06 1015.94 1015.98 1016.06 1015.94 1015.74 1015.74 1015.66 1015.62
1024.18 1024.18 1024.22 1024.34 1024.50 1024.58 1024.70 1024.86 1024.98 1025.06 1025.06 1025.06 1025.18 1025.18 1025.10 1025.10 1025.06 1025.02 1024.98 1024.94 1024.86 1024.78 1024.74 1024.62 1024.46 1024.22 1023.94 1023.66 1023.38 1023.18 1022.98 1022.70 1022.46 1022.22 1022.10 1021.90 1021.82 1021.54 1021.50 1021.38 1021.02 1020.70 1020.34 1019.86 1019.58 1019.46 1019.50 1019.42 1019.30 1019.22 1019.02 1018.82 1018.70 1018.62 1018.54 1018.30 1017.74 1017.46 1017.18 1016.82 1016.82 1016.62 1016.46 1016.34 1016.30 1016.06 1015.90 1016.02 1015.94 1015.86 1015.70 1015.46 1015.46 1015.42
1023.98 1024.42 1024.58 1024.78 1024.74 1024.86 1024.90 1025.06 1025.18 1025.26 1025.34 1025.38 1025.34 1025.30 1025.30 1025.26 1025.14 1025.02 1024.98 1024.90 1024.70 1024.50 1024.42 1024.22 1024.06 1023.86 1023.66 1023.46 1023.14 1022.94 1022.70 1022.38 1022.14 1021.90 1021.82 1021.54 1021.38 1021.30 1021.14 1020.98 1020.66 1020.34 1020.10 1019.70 1019.34 1019.14 1018.98 1018.90 1018.82 1018.70 1018.54 1018.38 1018.18 1018.02 1017.98 1017.90 1017.54 1017.14 1016.90 1016.86 1016.78 1016.54 1016.14 1016.14 1016.06 1015.98 1015.94 1015.90 1015.86 1015.82 1015.54 1015.30 1015.18 1015.18
1023.98 1024.18 1024.46 1024.86 1025.02 1025.18 1025.22 1025.26 1025.38 1025.46 1025.50 1025.46 1025.46 1025.34 1025.30 1025.22 1025.14 1025.06 1024.94 1024.66 1024.42 1024.22 1024.02 1023.82 1023.66 1023.50 1023.34 1023.06 1022.82 1022.62 1022.34 1022.10 1021.78 1021.54 1021.38 1021.22 1021.06 1020.94 1020.74 1020.58 1020.26 1019.98 1019.74 1019.42 1019.10 1018.78 1018.70 1018.58 1018.54 1018.42 1018.22 1018.02 1017.78 1017.30 1017.26 1017.22 1017.18 1016.82 1016.74 1016.50 1016.34 1016.22 1015.90 1015.82 1015.82 1015.70 1015.70 1015.66 1015.74 1015.74 1015.42 1015.26 1015.06 1015.02
1024.30 1024.38 1024.62 1024.90 1025.06 1025.22 1025.22 1025.42 1025.50 1025.54 1025.46 1025.42 1025.34 1025.34 1025.26 1025.06 1024.94 1024.86 1024.62 1024.38 1024.22 1024.06 1023.86 1023.66 1023.46 1023.22 1023.02 1022.82 1022.62 1022.38 1022.10 1021.86 1021.58 1021.34 1021.06 1020.90 1020.74 1020.50 1020.30 1020.10 1019.82 1019.50 1019.26 1019.02 1018.66 1018.42 1018.42 1018.38 1018.38 1018.42 1018.18 1017.86 1017.70 1017.26 1016.78 1016.42 1016.54 1016.58 1016.58 1016.26 1016.06 1015.94 1015.78 1015.62 1015.58 1015.54 1015.58 1015.54 1015.46 1015.46 1015.34 1015.14 1014.82 1014.94
1024.38 1024.66 1024.74 1024.90 1025.18 1025.30 1025.38 1025.42 1025.46 1025.42 1025.38 1025.34 1025.30 1025.26 1025.14 1024.94 1024.74 1024.58 1024.46 1024.34 1024.14 1023.90 1023.66 1023.46 1023.22 1023.02 1022.82 1022.58 1022.34 1022.06 1021.82 1021.58 1021.30 1020.98 1020.78 1020.50 1020.34 1020.18 1019.98 1019.62 1019.42 1019.14 1018.94 1018.58 1018.34 1018.18 1018.18 1018.18 1018.14 1018.14 1017.94 1017.66 1017.50 1017.14 1016.54 1016.26 1016.14 1016.14 1016.10 1016.06 1015.82 1015.66 1015.66 1015.58 1015.58 1015.50 1015.34 1015.30 1015.22 1015.18 1015.10 1014.98 1014.86 1015.06
1024.42 1024.74 1024.82 1025.02 1025.18 1025.34 1025.42 1025.46 1025.46 1025.34 1025.30 1025.34 1025.26 1025.14 1024.94 1024.78 1024.58 1024.34 1024.18 1024.02 1023.82 1023.62 1023.42 1023.30 1023.06 1022.82 1022.54 1022.26 1022.06 1021.78 1021.54 1021.26 1021.02 1020.74 1020.46 1020.22 1020.06 1019.86 1019.62 1019.38 1019.06 1018.82 1018.54 1018.18 1017.98 1017.86 1017.82 1017.86 1017.82 1017.74 1017.70 1017.46 1017.22 1016.86 1016.58 1015.94 1016.10 1015.90 1015.86 1015.90 1015.82 1015.54 1015.50 1015.54 1015.50 1015.38 1015.18 1015.18 1015.22 1015.06 1014.98 1014.98 1015.06 1015.26
1024.50 1024.66 1024.82 1025.02 1025.26 1025.30 1025.26 1025.34 1025.46 1025.42 1025.30 1025.22 1025.14 1025.02 1024.90 1024.66 1024.46 1024.26 1024.06 1023.90 1023.78 1023.62 1023.38 1023.14 1022.82 1022.50 1022.22 1021.94 1021.74 1021.58 1021.34 1021.10 1020.82 1020.54 1020.26 1019.98 1019.78 1019.58 1019.30 1019.06 1018.78 1018.42 1018.26 1017.98 1017.66 1017.50 1017.46 1017.46 1017.38 1017.30 1017.26 1017.14 1016.94 1016.62 1016.38 1016.26 1015.94 1015.78 1015.78 1015.78 1015.74 1015.70 1015.50 1015.54 1015.54 1015.50 1015.42 1015.38 1015.46 1015.46 1015.42 1015.34 1015.42 1015.50
1024.58 1024.70 1024.90 1025.10 1025.22 1025.34 1025.38 1025.42 1025.34 1025.34 1025.26 1025.18 1025.06 1024.94 1024.86 1024.70 1024.50 1024.30 1024.10 1023.94 1023.70 1023.50 1023.26 1022.94 1022.54 1022.22 1021.86 1021.62 1021.50 1021.34 1021.14 1020.90 1020.62 1020.30 1020.02 1019.74 1019.42 1019.22 1018.98 1018.74 1018.54 1018.22 1017.98 1017.70 1017.46 1017.10 1017.06 1016.90 1016.86 1016.82 1016.74 1016.58 1016.42 1016.30 1016.22 1016.18 1015.90 1015.74 1015.70 1015.46 1015.38 1015.42 1015.30 1015.34 1015.46 1015.42 1015.34 1015.38 1015.46 1015.50 1015.54 1015.50 1015.54 1015.66
1024.66 1024.86 1025.06 1025.22 1025.34 1025.42 1025.34 1025.34 1025.34 1025.34 1025.22 1025.10 1025.02 1024.94 1024.82 1024.66 1024.46 1024.30 1024.18 1023.90 1023.62 1023.34 1023.02 1022.70 1022.38 1022.10 1021.78 1021.54 1021.34 1021.22 1020.98 1020.62 1020.30 1020.02 1019.70 1019.42 1019.14 1018.90 1018.62 1018.42 1018.22 1017.94 1017.78 1017.42 1017.10 1016.82 1016.50 1016.26 1016.22 1016.22 1016.26 1016.22 1016.14 1016.18 1016.22 1016.06 1015.78 1015.38 1015.22 1014.98 1014.94 1014.98 1014.94 1015.02 1015.06 1015.22 1015.26 1015.34 1015.42 1015.38 1015.34 1015.42 1015.54 1015.66
1024.66 1024.90 1025.22 1025.38 1025.38 1025.38 1025.38 1025.34 1025.38 1025.26 1025.10 1025.10 1025.06 1024.94 1024.78 1024.58 1024.46 1024.38 1024.10 1023.82 1023.50 1023.22 1022.94 1022.58 1022.26 1021.94 1021.62 1021.34 1021.14 1020.94 1020.74 1020.42 1020.06 1019.74 1019.42 1019.18 1018.86 1018.50 1018.22 1018.02 1017.82 1017.46 1017.38 1017.06 1016.66 1016.26 1015.86 1015.86 1015.94 1016.02 1016.06 1016.06 1016.06 1016.06 1015.82 1015.66 1015.50 1015.22 1014.98 1014.94 1014.90 1014.90 1014.86 1014.82 1014.82 1014.86 1014.98 1015.18 1015.26 1015.26 1015.46 1015.58 1015.54 1015.70
1024.86 1025.02 1025.14 1025.34 1025.38 1025.34 1025.38 1025.42 1025.30 1025.18 1025.18 1025.14 1025.06 1024.94 1024.78 1024.66 1024.50 1024.34 1024.06 1023.70 1023.34 1023.06 1022.78 1022.54 1022.22 1021.90 1021.58 1021.26 1021.02 1020.78 1020.50 1020.14 1019.78 1019.46 1019.10 1018.82 1018.54 1018.26 1017.94 1017.62 1017.34 1017.10 1016.90 1016.62 1016.22 1015.94 1015.70 1015.66 1015.70 1015.74 1015.74 1015.74 1015.70 1015.66 1015.50 1015.26 1015.18 1015.02 1014.94 1014.90 1014.90 1014.98 1014.94 1014.74 1014.58 1014.74 1014.90 1014.98 1015.02 1014.98 1014.98 1014.98 1015.10 1015.26
1024.94 1025.02 1025.18 1025.26 1025.22 1025.30 1025.38 1025.34 1025.18 1025.26 1025.22 1025.10 1025.06 1024.98 1024.90 1024.82 1024.62 1024.34 1024.06 1023.74 1023.38 1023.06 1022.78 1022.54 1022.22 1021.90 1021.54 1021.18 1020.86 1020.50 1020.18 1019.82 1019.46 1019.18 1018.82 1018.50 1018.18 1017.90 1017.62 1017.26 1016.98 1016.78 1016.54 1016.34 1016.02 1015.70 1015.46 1015.34 1015.30 1015.38 1015.46 1015.34 1015.30 1015.30 1015.22 1015.18 1015.10 1014.90 1014.86 1014.90 1015.06 1015.10 1015.14 1015.10 1015.02 1015.02 1015.02 1015.10 1015.14 1015.02 1014.94 1014.90 1014.86 1014.86
1025.10 1025.14 1025.10 1025.22 1025.34 1025.34 1025.30 1025.22 1025.30 1025.30 1025.18 1025.14 1025.10 1025.06 1025.02 1024.90 1024.70 1024.38 1024.02 1023.70 1023.34 1023.02 1022.78 1022.54 1022.26 1021.90 1021.54 1021.14 1020.74 1020.30 1019.86 1019.50 1019.18 1018.86 1018.50 1018.14 1017.82 1017.50 1017.22 1016.94 1016.70 1016.42 1016.22 1015.98 1015.86 1015.54 1015.26 1015.10 1014.98 1015.10 1015.14 1015.06 1015.02 1015.02 1014.94 1014.94 1014.90 1014.86 1014.90 1014.98 1015.10 1015.18 1015.22 1015.22 1015.18 1015.22 1015.34 1015.50 1015.54 1015.30 1015.14 1015.06 1015.06 1015.14
Wind_Speed
6 5 5 6 5 4 4 5 5 5 5 4 4 4 4 5 7 3 4 4 3 5 5 4 6 6 6 6 6 7 8 10 9 7 7 7 7 14 18 18 17 17 17 16 15 13 13 13 12 12 11 10 10 10 8 6 6 7 7 7 8 9 10 10 12 12 16 18 17 15 14 14 18 17
5 5 5 4 4 2 4 4 4 5 5 5 5 5 4 4 6 4 5 4 1 3 4 4 4 6 7 5 6 6 7 11 10 8 8 8 8 14 18 18 17 17 17 18 17 16 16 16 15 15 13 12 13 12 12 12 10 8 8 7 6 7 7 8 10 12 14 14 15 13 11 14 15 18
5 5 5 4 5 4 5 4 4 4 5 5 5 5 5 5 6 6 5 5 1 0 4 4 3 4 5 5 5 5 5 8 9 7 7 8 11 13 13 16 16 16 16 17 17 17 15 16 16 14 13 13 12 13 12 13 12 11 9 7 7 7 8 7 8 11 13 12 12 13 14 15 14 13
4 5 5 4 5 5 5 5 5 5 5 5 6 6 6 5 4 6 6 6 4 1 2 2 4 5 4 6 7 6 5 6 10 6 7 8 10 8 7 12 14 14 14 15 15 15 15 16 15 15 15 15 15 14 12 11 11 11 11 9 9 8 9 9 8 10 11 11 10 10 12 13 13 12
3 4 5 5 4 4 6 5 5 6 5 5 6 5 6 6 4 5 5 5 4 1 0 1 3 4 3 6 6 6 6 7 6 7 6 7 7 7 6 6 11 12 12 13 13 14 14 14 14 14 14 14 14 14 13 12 12 11 10 9 8 9 8 7 8 9 10 11 9 9 9 9 10 10
1 2 4 4 4 3 6 5 5 5 5 5 6 4 5 5 4 1 4 3 3 2 1 3 3 3 3 5 5 5 6 6 6 7 6 6 7 6 6 6 7 11 11 11 12 12 13 13 13 13 13 12 12 12 12 11 11 10 9 9 8 7 7 7 7 7 9 10 10 10 9 9 8 8
0 2 3 4 4 3 6 5 5 5 6 4 6 5 4 6 4 3 4 4 4 5 2 1 2 3 3 4 5 5 3 3 3 5 5 5 5 5 6 5 5 8 9 10 11 12 12 12 12 12 12 12 11 12 12 11 11 10 8 7 8 8 8 5 3 5 6 8 8 9 9 8 9 11
4 4 4 4 3 3 6 5 5 4 5 6 6 6 4 5 5 4 5 5 4 2 4 2 2 1 3 2 3 3 2 3 3 4 2 2 4 4 4 5 5 6 7 7 9 10 11 11 11 11 11 11 11 11 11 12 11 11 10 9 9 9 10 10 8 5 5 8 9 10 9 9 10 11
5 5 6 5 4 4 5 4 5 4 6 5 6 6 4 4 4 3 4 5 4 5 5 1 1 1 0 0 1 3 4 3 2 3 3 1 4 4 3 3 4 5 4 5 7 8 9 10 10 10 10 9 9 9 10 11 11 11 11 10 10 10 11 11 10 9 7 5 7 9 10 10 11 11
6 7 7 6 6 6 6 6 5 5 7 5 6 7 5 4 4 4 4 5 5 6 4 3 2 0 2 2 1 2 3 3 4 4 3 0 2 4 4 3 3 3 2 2 4 5 7 10 10 10 10 10 9 8 8 9 10 10 10 10 10 11 10 10 9 9 8 8 7 8 9 10 11 11
6 6 6 6 7 7 7 7 8 7 7 6 7 6 7 5 6 5 4 5 6 5 4 1 1 1 1 2 2 2 3 2 4 6 5 2 1 2 6 6 3 2 1 2 3 5 6 8 8 9 10 10 10 10 9 9 9 9 9 9 10 10 9 9 9 9 9 9 10 9 9 9 11 12
6 7 6 7 7 8 8 8 7 8 7 5 5 3 4 5 6 3 2 4 4 3 3 2 2 1 1 2 1 2 1 1 1 4 4 7 9 8 4 3 6 2 2 4 4 3 4 5 6 7 7 8 9 9 9 9 10 9 9 9 9 9 8 8 9 9 9 9 10 10 11 11 11 11
5 6 6 7 7 8 8 10 10 10 8 7 6 5 6 5 5 4 4 4 3 2 2 2 1 1 2 1 3 4 3 5 3 3 3 2 3 5 7 6 2 1 4 4 4 5 6 8 7 5 4 5 7 7 8 9 10 10 10 9 8 7 6 6 7 7 8 9 10 10 11 11 12 12
6 7 7 7 9 11 12 11 11 11 12 9 7 8 7 7 6 4 4 4 3 3 2 0 0 3 3 2 2 1 1 1 1 2 3 4 5 4 5 3 1 2 4 8 10 6 2 6 8 4 6 5 4 5 5 6 8 11 12 10 8 6 6 6 6 6 7 8 9 10 11 12 12 13
7 6 6 6 7 8 9 10 7 5 8 10 10 11 9 7 7 6 4 3 3 3 2 2 2 1 3 2 0 1 1 1 2 2 2 3 3 5 6 9 5 3 6 7 8 11 5 4 7 7 7 6 5 5 6 11 13 12 10 11 8 6 7 8 8 7 7 7 8 9 10 11 12 13
6 6 5 5 5 6 7 6 6 8 8 8 9 10 8 9 8 4 4 4 2 2 3 2 2 1 2 2 1 0 0 1 1 1 2 2 3 5 5 4 6 3 7 8 9 10 5 4 7 8 5 5 5 6 10 14 14 12 10 10 8 7 9 9 10 9 8 8 9 10 10 10 11 12
6 5 5 5 5 5 7 6 5 6 6 6 10 11 11 10 9 9 8 4 4 5 4 4 3 4 2 1 1 1 1 1 3 3 3 3 3 3 4 6 6 8 5 6 6 9 8 6 6 8 7 6 5 7 8 12 14 14 10 9 6 7 8 9 9 9 9 8 8 9 10 10 11 11
5 5 5 5 5 4 4 4 6 7 8 7 7 6 5 5 6 7 8 8 6 4 4 5 4 3 4 2 2 2 3 0 3 3 4 3 5 5 6 6 7 8 5 5 6 8 7 5 7 8 8 7 6 6 9 13 13 13 11 9 6 7 8 8 9 9 9 8 9 9 9 10 11 11
5 5 5 5 5 3 3 4 7 8 8 8 6 6 5 4 4 4 4 3 4 4 3 3 4 4 3 2 2 2 2 2 3 3 5 5 5 5 5 5 5 6 3 3 2 6 6 7 8 7 7 7 7 6 9 12 13 13 11 9 7 7 9 9 9 8 9 8 8 9 9 10 11 12
3 3 2 2 2 2 3 3 7 7 7 8 7 6 5 4 4 4 3 4 4 4 4 4 4 3 3 2 1 1 2 2 2 2 2 3 3 3 4 5 4 4 3 3 5 7 6 5 6 8 8 7 8 7 6 11 14 12 9 9 8 8 9 9 10 10 10 10 9 8 8 9 10 12
5 4 4 4 5 5 4 4 8 9 9 8 7 6 5 3 4 3 2 5 7 6 6 5 5 3 2 1 2 3 4 4 2 2 2 4 2 3 6 5 4 5 2 3 5 5 7 3 5 9 8 8 9 9 7 7 9 9 8 9 9 10 10 9 9 10 10 11 11 10 8 8 10 12
6 7 11 7 6 7 5 6 9 8 8 7 6 6 6 5 4 3 1 2 3 4 4 5 2 1 1 1 3 4 5 5 4 4 4 3 1 4 4 7 5 6 4 5 2 3 6 6 5 9 8 9 5 5 6 6 5 6 6 8 10 10 10 11 11 11 11 11 10 9 8 7 9 7
6 6 8 9 8 7 7 10 9 9 7 7 5 5 5 4 3 2 2 3 3 2 2 1 3 0 1 1 2 3 4 5 5 5 5 3 3 5 5 6 6 8 3 2 1 7 8 7 6 6 10 9 8 7 3 3 6 7 8 8 8 11 11 11 11 11 12 11 10 9 8 6 7 6
6 6 5 7 10 11 11 11 12 11 10 6 4 4 4 3 3 2 2 2 2 2 1 1 1 2 2 3 2 2 3 3 3 3 3 4 4 5 5 5 5 8 6 1 3 8 7 5 8 5 7 10 8 5 8 11 8 6 5 7 6 9 10 11 8 10 11 11 11 10 8 7 5 5
5 4 5 4 7 11 11 11 11 11 10 7 6 5 4 2 2 2 2 2 3 2 1 2 2 3 3 3 3 3 3 3 4 4 4 4 4 5 5 6 6 8 6 6 7 6 7 6 10 9 8 9 11 12 10 10 9 7 7 7 8 7 6 6 5 6 7 11 11 9 8 7 6 4
5 5 4 4 5 9 9 9 9 9 9 9 5 5 5 5 4 3 2 1 2 1 2 2 2 3 3 3 3 4 4 4 4 4 5 5 5 5 6 7 8 9 9 3 7 6 9 11 10 10 9 10 12 10 12 9 9 8 8 7 6 6 6 6 6 6 6 5 6 5 6 8 7 6
5 3 4 4 6 9 9 9 10 9 9 7 5 7 7 7 6 4 2 2 2 2 2 2 3 3 3 3 4 4 5 4 5 5 5 6 6 6 6 7 8 9 9 7 7 8 8 12 9 10 12 11 14 13 11 11 9 5 4 5 5 5 5 5 6 6 6 6 6 7 7 8 9 8
5 5 4 4 8 10 11 11 11 11 9 8 10 10 9 7 5 3 3 3 3 3 3 3 3 4 3 4 4 5 5 5 6 6 6 7 7 7 7 8 9 8 8 8 8 8 8 10 12 11 11 12 13 13 14 11 11 10 11 8 7 5 6 6 6 6 7 5 4 4 3 4 3 3
5 6 8 10 11 11 11 11 10 9 10 11 10 9 8 6 4 4 4 3 3 4 4 4 4 4 4 5 5 5 6 6 6 6 6 6 7 9 9 9 9 9 8 8 9 8 8 10 12 11 11 11 13 13 12 13 11 12 10 11 11 8 7 6 6 6 6 4 4 4 4 4 4 2
11 11 12 13 11 10 8 8 7 6 6 8 9 9 7 5 4 4 4 4 4 4 5 5 6 6 5 5 5 5 5 7 9 9 9 9 9 8 9 10 10 9 10 10 9 9 10 10 11 10 11 11 11 13 12 13 13 11 10 10 11 10 8 8 8 6 5 6 5 5 5 3 4 4
7 8 7 7 9 8 10 9 6 5 5 7 6 5 4 4 3 3 3 4 4 6 7 7 8 8 8 6 6 8 9 9 8 8 9 9 9 9 9 9 10 10 10 10 8 9 9 9 9 9 11 11 11 12 12 12 13 12 12 10 9 11 7 6 5 4 4 5 5 4 4 4 4 5
6 7 5 7 5 6 7 6 6 5 4 3 3 4 3 3 3 3 3 3 2 3 5 7 8 8 8 8 8 8 8 8 9 8 9 10 10 9 10 10 10 10 11 11 8 7 9 9 9 9 10 11 12 11 11 12 13 13 12 11 10 11 10 11 10 10 8 6 5 6 7 4 4 3
6 6 7 5 6 5 5 4 4 4 5 4 3 4 4 3 3 3 3 4 5 7 8 7 8 8 8 8 8 9 9 9 10 9 8 8 9 10 9 10 10 11 12 11 11 8 5 7 9 9 10 11 11 12 11 12 12 11 12 12 9 9 8 8 8 9 8 7 7 6 7 4 3 4
7 5 5 4 4 4 4 4 3 3 3 3 3 3 3 3 3 3 3 3 4 4 6 7 8 8 8 8 9 9 9 10 10 9 8 9 9 9 9 9 10 10 10 11 11 11 10 9 8 8 9 10 10 11 12 11 11 11 10 8 9 9 8 7 7 8 7 7 7 8 8 8 5 3
5 5 5 4 4 3 2 3 1 1 2 3 2 3 3 3 3 3 4 4 4 5 7 7 7 8 8 9 9 9 9 10 10 10 8 9 9 9 9 10 10 10 11 11 11 11 10 9 8 9 8 9 9 9 11 12 10 11 9 10 10 10 10 7 7 7 7 6 5 7 7 7 7 3
5 5 5 4 3 3 3 1 1 1 2 2 2 3 3 4 3 3 4 5 6 6 7 8 9 9 9 9 9 10 10 10 9 9 10 9 9 9 9 10 11 11 11 11 12 10 9 8 6 8 9 8 9 9 7 12 14 8 10 9 7 7 7 7 7 6 5 6 6 6 5 6 5 1
5 4 4 4 2 1 1 0 1 2 3 2 3 3 3 4 4 4 4 4 5 6 7 8 9 9 9 9 9 9 9 9 10 10 10 10 9 9 10 10 10 10 11 10 9 9 6 7 7 7 9 9 9 10 9 1 9 12 8 8 7 6 6 5 4 4 5 5 6 6 5 5 2 1
6 4 4 2 3 1 0 0 1 2 2 2 3 3 4 4 5 6 5 5 5 7 7 8 8 8 8 8 8 8 8 9 9 9 9 9 9 9 9 10 10 9 10 10 9 7 6 7 7 8 8 9 9 9 9 4 1 3 4 6 7 6 3 4 4 4 4 1 4 4 3 3 1 1
6 5 4 3 1 1 0 1 1 2 3 3 3 3 4 5 5 5 6 6 7 8 8 8 9 8 8 8 7 8 8 8 9 9 9 8 8 9 9 9 9 9 9 10 9 8 6 7 8 8 8 8 9 8 8 9 8 2 2 3 3 4 4 2 4 3 2 2 1 2 4 4 6 6
5 5 4 3 2 1 1 1 1 2 2 3 3 3 4 5 5 5 6 7 8 8 8 8 9 8 7 6 7 7 8 9 9 8 9 9 9 9 9 9 9 10 9 10 10 9 8 8 7 7 7 7 7 7 5 6 6 5 5 8 12 11 7 3 3 3 4 2 2 2 3 2 2 0
5 3 2 2 1 1 1 1 2 2 2 3 4 4 4 5 6 5 6 7 7 8 9 9 9 9 8 7 7 7 8 8 8 8 9 9 8 8 10 10 10 9 9 10 10 10 9 7 7 9 8 6 6 4 5 5 7 5 4 4 5 8 11 9 6 4 2 2 3 2 3 2 3 2
3 3 1 1 0 0 2 2 2 2 2 3 4 4 5 5 5 8 8 7 7 6 8 9 9 9 8 7 8 8 8 9 8 8 8 8 9 9 10 8 8 9 8 9 10 10 8 6 4 4 5 4 4 4 6 7 7 6 4 2 1 1 3 5 8 7 6 4 4 3 2 2 2 3
4 2 2 1 0 1 1 1 1 2 2 3 3 5 6 6 6 6 6 7 6 6 7 7 8 8 8 8 8 7 9 9 8 9 9 9 8 8 9 8 9 9 9 9 9 8 7 6 5 4 4 5 6 6 7 7 6 6 5 3 1 1 2 4 1 3 3 4 2 2 1 1 2 2
2 3 1 1 1 1 1 1 2 2 2 2 3 5 5 6 6 6 6 6 6 6 7 7 8 8 8 8 8 8 8 9 9 9 9 9 9 8 8 8 8 8 7 8 8 8 7 6 5 4 4 5 5 5 6 6 6 5 4 2 0 1 2 3 6 8 8 10 10 5 5 3 2 1
1 1 1 1 0 1 1 2 2 2 2 3 3 5 5 5 6 6 6 6 6 7 7 8 8 8 9 9 9 9 9 9 9 8 7 8 7 7 7 7 7 7 7 7 7 8 7 6 5 2 3 4 4 5 4 4 4 3 2 1 2 3 1 1 3 5 5 5 9 7 8 10 12 16
Wind_Direction
114 95 89 106 95 57 71 74 77 92 86 81 83 82 124 149 132 134 78 14 66 28 9 48 17 22 20 17 15 24 30 25 27 31 35 34 37 35 36 32 31 30 29 31 32 30 26 23 22 17 14 10 4 2 356 349 334 314 303 292 282 278 278 278 273 263 257 256 257 255 236 224 219 220
120 114 92 89 84 29 72 73 63 75 84 79 72 78 78 100 123 148 121 104 270 64 25 44 15 8 19 14 24 28 31 27 35 34 37 37 29 35 36 33 34 35 36 37 37 37 35 30 26 20 13 7 5 1 353 350 352 348 338 323 300 282 278 270 271 270 267 262 263 264 250 240 230 225
118 110 97 96 91 99 93 79 68 64 81 89 87 73 66 52 95 108 123 114 353 43 43 5 11 8 12 15 27 29 30 24 33 36 33 34 30 34 33 34 35 38 39 40 40 38 36 33 28 21 14 10 6 3 353 351 347 350 354 352 333 317 305 289 277 275 273 272 268 263 258 254 246 235
108 110 100 94 109 108 95 82 78 82 77 93 90 83 80 66 70 87 84 95 102 317 61 15 336 13 25 22 25 23 22 27 30 35 38 30 30 32 23 29 35 36 37 38 39 37 35 31 27 23 22 22 22 18 8 357 352 353 355 359 5 350 334 323 313 300 295 291 289 280 271 263 258 249
113 121 123 129 108 110 94 94 94 86 90 84 78 84 86 78 60 96 103 104 109 76 332 333 357 347 1 41 14 23 14 14 21 32 41 34 34 31 22 16 29 33 34 35 35 34 32 28 25 21 19 19 19 18 17 13 7 5 4 359 4 8 4 344 333 329 317 310 303 302 298 289 277 263
346 113 126 130 103 82 107 111 102 112 103 95 84 58 88 87 75 125 116 105 123 131 307 23 354 8 359 67 18 27 14 13 10 23 22 33 35 29 17 16 17 23 31 30 33 33 30 26 23 17 13 11 11 10 8 10 13 9 6 8 6 9 15 2 342 325 317 314 314 313 302 292 285 281
204 126 151 175 144 135 100 102 116 121 110 103 99 102 98 102 92 69 109 125 113 97 119 194 63 26 9 66 31 17 20 16 27 28 21 28 25 23 13 13 5 13 26 26 29 27 24 21 16 13 8 3 3 1 359 357 356 0 1 3 1 358 353 352 334 311 302 303 299 293 292 293 291 286
194 194 186 223 194 147 121 133 124 118 119 118 120 119 120 119 123 111 99 105 133 160 98 18 88 20 56 62 52 15 26 26 34 31 10 40 42 22 14 5 360 1 16 22 26 22 17 11 7 4 1 357 353 352 350 348 346 344 345 347 353 354 347 340 334 321 305 309 309 305 300 290 282 275
202 200 208 202 188 171 138 161 143 150 137 140 132 133 146 134 142 108 105 105 107 122 108 133 203 312 176 70 116 31 18 16 33 21 10 52 38 24 13 351 351 342 14 9 15 14 7 1 354 351 350 348 344 341 341 338 336 334 335 338 344 344 341 335 331 326 314 291 285 294 295 294 290 285
202 209 215 204 181 182 178 185 176 168 158 152 148 148 157 149 120 118 102 108 101 102 116 127 102 355 56 2 8 18 17 10 11 13 13 186 38 8 6 19 351 345 358 4 7 360 353 350 341 337 336 335 334 334 332 328 325 324 326 334 337 336 334 331 326 320 311 301 286 268 272 279 279 278
216 224 220 204 191 195 196 184 185 179 177 174 174 164 159 150 139 147 169 129 116 126 133 109 100 132 118 32 8 359 5 35 59 5 342 360 118 46 4 343 357 350 353 6 2 342 333 326 324 323 322 323 323 327 325 322 320 316 321 330 331 330 328 325 323 317 309 302 294 284 268 260 263 267
222 220 221 216 206 207 205 197 191 182 179 168 151 166 139 147 115 126 132 83 83 110 109 107 143 49 68 356 309 301 351 55 73 43 15 345 341 345 359 348 321 341 348 339 333 319 312 303 294 291 294 298 306 313 315 316 316 314 319 328 326 322 327 332 330 327 322 316 308 298 287 274 262 257
240 233 226 224 220 218 219 210 196 193 174 164 167 169 156 138 131 146 109 114 107 69 79 94 70 88 33 8 355 2 25 30 9 340 4 326 325 319 323 330 304 343 337 328 312 324 336 322 319 317 309 310 308 304 305 307 307 313 321 326 320 321 336 329 324 324 326 323 317 310 300 289 279 267
231 233 230 235 229 228 231 226 215 202 189 185 169 167 165 154 140 136 128 124 135 132 134 146 102 1 351 351 6 4 13 313 315 345 1 345 330 318 295 266 181 15 10 340 328 321 345 313 307 309 314 307 299 298 304 306 309 313 319 321 320 332 325 312 315 319 321 322 321 318 313 306 295 283
260 248 237 245 242 240 240 239 236 214 196 177 170 159 158 159 150 141 131 176 163 150 141 129 115 107 325 329 208 254 326 44 350 349 343 325 335 354 354 329 323 115 5 340 322 310 338 315 312 317 311 303 299 297 297 304 307 311 315 316 320 333 321 318 325 325 324 323 321 317 314 309 304 295
261 267 265 252 247 242 239 219 196 188 190 181 159 140 117 92 71 87 152 150 122 157 146 155 162 146 245 252 187 194 338 336 331 332 329 332 339 329 323 301 297 321 19 334 317 300 317 335 315 307 305 303 295 293 297 302 303 308 314 313 318 325 322 324 329 329 324 326 330 328 322 314 308 303
264 269 271 271 253 253 237 209 167 146 140 113 110 102 93 81 87 87 81 93 151 160 144 147 165 192 171 218 219 171 161 150 321 320 321 316 297 282 282 284 298 310 347 315 297 302 311 330 315 313 311 308 301 295 292 295 301 305 310 306 311 313 313 316 317 316 321 327 330 329 325 320 315 308
263 258 255 262 266 240 182 150 152 145 137 130 107 84 68 78 76 77 87 93 97 109 141 149 168 195 161 193 171 180 145 66 304 305 295 298 295 286 282 302 294 293 306 296 305 293 301 330 322 308 310 311 303 296 294 292 289 292 301 295 288 300 298 296 300 306 310 316 324 327 328 328 324 317
262 256 244 235 234 191 157 154 155 142 134 118 103 95 90 82 73 69 80 106 119 102 106 125 126 141 173 165 172 168 179 228 251 265 277 287 284 288 297 281 262 287 272 272 298 288 312 323 313 306 308 309 300 295 292 285 283 285 290 279 275 291 295 294 298 299 300 305 313 319 326 328 325 321
346 315 258 174 108 89 87 113 137 133 127 116 114 111 114 102 86 64 17 41 78 84 88 101 119 143 165 168 179 201 203 232 250 272 284 286 272 290 297 293 301 277 284 278 286 280 294 303 296 306 310 304 301 298 288 287 285 287 283 271 271 273 281 292 298 302 305 304 305 311 320 324 324 319
16 26 56 77 85 70 58 77 111 120 117 107 113 117 110 106 108 112 76 55 63 70 74 76 82 96 125 146 251 260 253 235 215 192 256 269 247 293 295 286 280 276 299 275 259 274 289 285 298 303 303 299 300 300 290 283 284 299 283 274 281 287 289 293 294 293 293 296 303 312 315 322 324 314
27 46 68 83 83 85 70 90 96 102 105 102 106 113 118 115 112 129 106 85 57 45 80 86 38 205 169 211 254 253 252 244 227 208 256 271 253 275 267 288 293 293 288 272 254 274 281 311 305 304 298 296 263 268 280 282 300 298 286 278 287 300 304 301 297 295 291 291 295 301 307 314 323 321
48 46 48 63 80 85 91 81 77 76 84 88 99 115 109 110 96 76 72 92 106 55 65 24 17 47 293 282 295 287 285 273 248 219 243 255 248 271 276 279 297 304 277 231 163 303 304 316 305 313 316 306 302 283 263 320 327 315 309 309 306 294 289 290 291 289 288 290 295 296 295 300 317 319
57 51 57 57 71 77 72 65 60 53 59 82 67 65 76 100 85 115 118 136 133 100 105 256 240 280 306 320 323 310 307 300 284 264 239 234 242 259 267 265 259 275 279 200 309 292 291 283 291 298 292 302 302 301 302 298 290 284 286 285 276 278 279 285 286 278 283 290 292 292 287 287 297 318
94 78 65 57 61 71 71 71 69 67 63 68 70 64 74 74 122 134 68 79 66 47 19 351 339 330 336 328 320 306 301 291 289 285 277 259 241 249 262 265 261 259 250 260 270 276 282 291 293 295 283 275 279 290 289 291 291 273 274 272 272 274 271 273 270 274 275 280 282 282 278 278 277 282
109 120 122 109 81 79 78 76 73 67 62 56 61 62 80 90 78 62 56 66 40 18 11 344 333 324 316 315 309 300 293 289 285 282 277 272 261 244 244 258 271 281 285 239 229 255 277 287 288 291 289 289 286 285 293 288 290 283 259 260 269 274 277 279 279 275 274 275 283 282 285 284 273 255
119 93 91 86 78 75 71 67 65 61 60 60 54 55 53 48 53 52 43 38 28 360 339 337 319 311 304 301 300 296 292 283 276 275 271 269 269 264 255 249 244 255 273 278 260 261 261 276 278 278 286 288 288 290 282 289 291 285 266 265 261 258 262 261 266 271 276 279 279 292 285 268 258 246
117 110 94 89 86 84 80 78 75 71 68 68 61 59 60 64 62 64 43 32 16 354 344 333 317 304 295 287 284 285 287 291 290 285 280 279 273 271 268 263 261 256 263 258 253 251 254 267 277 272 275 283 285 286 289 285 285 285 287 285 267 257 256 253 256 256 260 264 279 282 286 286 250 247
104 108 101 95 92 89 84 79 75 67 61 60 60 58 54 52 39 36 24 8 358 348 332 313 300 291 285 283 283 285 291 290 286 280 278 277 285 288 284 280 276 273 269 268 266 259 253 265 275 279 276 276 278 279 282 285 286 283 282 284 280 262 255 251 250 256 263 266 265 262 261 275 280 235
101 100 100 97 91 83 80 72 60 60 54 54 50 46 43 40 34 21 16 357 353 330 320 313 304 300 297 292 292 288 288 296 298 302 303 308 305 303 301 301 293 284 277 273 271 268 264 264 267 269 273 272 271 274 275 279 276 278 273 267 274 284 265 261 259 255 246 249 240 237 247 231 254 261
89 81 82 85 86 85 77 76 71 63 41 42 30 23 22 27 17 15 11 355 332 325 320 314 309 306 302 292 288 302 309 306 304 307 307 306 305 305 303 301 296 294 289 281 251 254 254 253 254 254 268 274 271 268 273 273 278 279 276 273 272 271 279 273 261 258 249 256 277 287 274 251 252 234
93 96 86 71 43 54 46 46 32 30 38 44 26 10 7 1 355 351 344 325 309 294 314 312 310 309 311 310 310 309 307 303 301 305 306 307 304 302 302 299 296 296 295 293 277 236 238 244 248 251 252 266 272 278 276 274 275 278 279 276 271 272 269 270 273 275 272 280 285 277 274 258 262 241
88 80 71 63 57 49 60 47 42 21 17 5 4 360 347 343 334 334 332 335 332 334 329 323 319 315 314 309 308 307 304 302 301 298 289 285 285 292 286 282 285 293 298 298 297 289 246 230 234 242 255 264 261 261 266 271 270 271 273 276 277 272 267 264 264 271 281 281 273 271 279 257 232 251
94 81 85 75 79 67 63 54 37 13 356 344 341 333 320 310 311 302 293 284 286 300 307 312 313 311 310 307 307 307 304 303 301 295 280 286 284 282 277 276 279 281 283 288 293 293 295 287 273 259 253 252 252 253 258 265 270 271 267 273 272 274 268 267 264 262 264 262 273 280 273 279 264 227
96 109 94 85 74 71 73 63 17 340 334 321 312 308 308 298 288 284 280 286 299 308 309 307 300 300 302 304 304 300 302 300 299 297 289 282 278 276 277 277 281 284 287 288 288 290 291 289 286 283 278 276 274 262 226 236 260 261 269 267 267 266 268 259 260 259 256 259 241 255 271 275 273 242
91 104 109 99 88 86 63 5 301 295 308 308 303 300 306 305 296 296 309 318 317 314 314 313 311 311 312 309 306 301 297 294 292 293 295 293 288 284 282 279 281 283 283 282 282 284 282 280 275 278 284 287 287 287 282 214 222 249 261 268 262 260 264 267 261 264 258 258 243 241 253 261 272 240
111 106 113 115 118 109 114 265 294 306 305 301 297 297 303 310 311 305 294 291 307 312 312 312 309 307 304 300 297 293 293 295 294 295 293 292 287 284 283 283 280 280 281 280 277 275 266 271 267 268 280 283 283 283 281 203 223 229 245 257 266 258 265 270 275 271 250 245 258 240 238 249 254 178
128 125 114 116 131 141 215 258 296 311 310 307 304 310 308 309 310 309 309 317 322 323 314 303 296 295 296 297 299 298 296 291 290 290 289 290 289 286 283 282 284 281 283 283 280 271 262 263 264 265 266 272 280 279 289 278 228 249 258 255 264 278 277 273 271 270 283 278 269 283 254 226 151 123
118 129 127 130 151 191 322 308 282 304 308 318 324 325 322 321 319 318 328 327 319 314 311 304 302 303 303 304 303 300 295 296 295 293 290 287 282 282 284 282 282 281 281 281 279 271 259 254 257 257 254 262 262 272 281 287 283 264 289 274 274 287 275 271 283 290 297 296 336 43 47 65 82 89
116 111 126 130 148 167 288 299 316 320 320 318 326 331 327 318 320 322 321 318 315 309 308 305 305 309 313 310 303 295 290 288 288 288 288 287 287 283 282 281 281 284 284 280 280 278 269 259 250 250 249 246 255 261 269 277 279 274 265 256 241 242 260 251 239 265 286 239 176 142 128 135 113 95
113 120 129 120 83 355 324 326 319 315 323 337 338 326 322 319 323 319 315 307 310 315 318 314 314 314 311 307 301 299 295 292 288 286 286 285 282 281 280 280 280 275 275 277 273 275 268 260 249 241 245 257 261 278 277 261 268 271 263 255 252 243 246 233 234 222 218 169 176 176 157 138 128 121
131 124 110 99 77 342 340 332 319 330 348 348 334 325 323 324 316 309 304 301 305 308 315 316 316 314 311 308 305 301 296 294 293 288 286 285 284 281 278 277 274 275 269 272 276 275 276 271 257 248 247 246 240 242 252 258 268 277 275 283 291 339 328 261 230 214 200 174 172 160 125 104 104 98
117 123 108 135 69 26 344 313 329 1 345 335 331 331 333 327 320 318 316 314 312 313 314 313 310 309 307 307 305 301 299 294 291 290 288 287 283 281 283 280 277 277 273 273 274 274 279 278 263 252 246 234 241 238 253 259 265 275 281 279 283 353 354 348 168 170 124 119 124 146 194 188 156 164
126 110 108 89 36 358 329 338 1 355 334 337 330 333 328 323 317 314 314 310 312 313 315 313 311 310 306 303 300 297 292 295 296 295 294 291 287 285 284 282 280 276 274 273 278 281 282 279 270 259 252 248 237 231 241 249 259 266 274 290 71 88 84 67 78 74 65 42 25 47 61 24 348 354
116 123 108 67 12 320 354 8 7 341 345 340 339 333 323 317 314 312 310 309 309 313 314 312 310 307 306 305 305 303 303 301 300 293 288 287 286 288 285 284 284 283 277 275 279 284 285 287 284 238 235 247 241 237 245 246 259 274 254 177 123 112 92 65 85 86 66 58 16 32 78 85 93 99